GW3809 Weather Reports


Display with metric or nautical units.
time (UTC)temp
F
wind
direction
speed
MPH
gust
MPH
rain 1hr
in
rain 24hr
in
rain mn
in
humidity
%
barometer
mb
20260506080812 80 151 10.0 11.0 0.00 0.00 0.00 86 1006.8
20260506080308 80 160 10.0 11.0 0.00 0.00 0.00 86 1006.9
20260506073252 80 162 6.0 12.0 0.00 0.00 0.00 86 1007.2
20260506072749 80 167 6.0 11.0 0.00 0.00 0.00 86 1007.2
20260506072246 80 151 4.0 8.0 0.00 0.00 0.00 87 1007.2
20260506071744 80 155 5.0 7.0 0.00 0.00 0.00 86 1007.3
20260506071242 80 148 7.0 10.0 0.00 0.00 0.00 86 1007.2
20260506070739 80 129 7.0 11.0 0.00 0.00 0.00 86 1007.1
20260506070235 80 141 7.0 11.0 0.00 0.00 0.00 86 1007.2
20260506062212 80 143 11.0 14.0 0.00 0.00 0.00 85 1007.8
20260506061709 80 147 4.0 12.0 0.00 0.00 0.00 85 1007.8
20260506061206 80 144 14.0 15.0 0.00 0.00 0.00 85 1007.8
20260506060704 80 146 7.0 10.0 0.00 0.00 0.00 85 1007.8
20260506060155 80 152 8.0 12.0 0.00 0.00 0.00 85 1007.8
20260506051127 81 169 6.0 14.0 0.00 0.00 0.00 83 1008.1
20260506050626 81 153 6.0 14.0 0.00 0.00 0.00 83 1008.2
20260506050122 81 123 5.0 10.0 0.00 0.00 0.00 83 1008.5
20260506045116 81 149 10.0 13.0 0.00 0.00 0.00 83 1008.6
20260506044614 81 152 9.0 15.0 0.00 0.00 0.00 83 1008.4
20260506044110 81 164 9.0 14.0 0.00 0.00 0.00 83 1008.4
20260506043607 81 140 9.0 18.0 0.00 0.00 0.00 83 1008.2
20260506043106 81 150 5.0 15.0 0.00 0.00 0.00 82 1008.5
20260506042604 81 153 10.0 17.0 0.00 0.00 0.00 82 1008.5
20260506042102 81 148 7.0 10.0 0.00 0.00 0.00 82 1008.4
20260506041601 81 156 6.0 10.0 0.00 0.00 0.00 82 1008.4
20260506041057 81 149 7.0 14.0 0.00 0.00 0.00 81 1008.5
20260506040555 81 125 11.0 14.0 0.00 0.00 0.00 81 1008.5
20260506040051 81 139 8.0 16.0 0.00 0.00 0.00 80 1008.4
20260506035548 81 164 4.0 11.0 0.00 0.00 0.00 80 1008.2
20260506035044 81 148 11.0 15.0 0.00 0.00 0.00 80 1008.2
20260506034542 81 123 9.0 11.0 0.00 0.00 0.00 80 1008.2
20260506034038 81 146 7.0 11.0 0.00 0.00 0.00 80 1007.9
20260506033536 81 156 8.0 14.0 0.00 0.00 0.00 81 1007.9
20260506033033 82 162 9.0 16.0 0.00 0.00 0.00 80 1007.9
20260506032530 82 158 11.0 21.0 0.00 0.00 0.00 80 1007.9
20260506032027 82 150 10.0 12.0 0.00 0.00 0.00 80 1007.7
20260506031525 82 171 6.0 13.0 0.00 0.00 0.00 80 1007.8
20260506031021 82 139 8.0 13.0 0.00 0.00 0.00 80 1007.7
20260506030520 82 148 11.0 13.0 0.00 0.00 0.00 80 1007.5
20260506030016 82 165 5.0 15.0 0.00 0.00 0.00 80 1007.4
20260506025513 82 167 6.0 13.0 0.00 0.00 0.00 80 1007.5
20260506025009 82 165 5.0 13.0 0.00 0.00 0.00 80 1007.5
20260506024507 82 167 6.0 9.0 0.00 0.00 0.00 80 1007.4
20260506024002 82 152 6.0 16.0 0.00 0.00 0.00 80 1007.2
20260506023459 82 166 14.0 21.0 0.00 0.00 0.00 79 1007.2
20260506022956 82 168 5.0 12.0 0.00 0.00 0.00 79 1007.1
20260506022454 82 134 9.0 16.0 0.00 0.00 0.00 79 1006.9
20260506021951 82 161 6.0 12.0 0.00 0.00 0.00 79 1007.1
20260506021449 82 131 7.0 16.0 0.00 0.00 0.00 79 1007.1
20260506020945 82 137 9.0 12.0 0.00 0.00 0.00 79 1007.0
20260506020443 82 156 7.0 13.0 0.00 0.00 0.00 79 1006.9
20260506015940 82 131 10.0 16.0 0.00 0.00 0.00 79 1006.7
20260506015438 83 117 10.0 12.0 0.00 0.00 0.00 78 1006.8
20260506014934 83 142 6.0 8.0 0.00 0.00 0.00 78 1006.5
20260506014431 83 163 12.0 13.0 0.00 0.00 0.00 78 1006.5
20260506013928 83 139 11.0 14.0 0.00 0.00 0.00 78 1006.4
20260506013426 83 128 11.0 16.0 0.00 0.00 0.00 78 1006.4
20260506012922 83 159 13.0 18.0 0.00 0.00 0.00 78 1006.3
20260506012418 83 138 7.0 13.0 0.00 0.00 0.00 77 1006.3
20260506011916 83 152 6.0 12.0 0.00 0.00 0.00 77 1006.4
20260506011413 83 139 7.0 11.0 0.00 0.00 0.00 77 1006.0
20260506010909 83 144 10.0 18.0 0.00 0.00 0.00 77 1006.0
20260506010408 84 133 8.0 15.0 0.00 0.00 0.00 77 1005.9
20260506005904 84 147 12.0 15.0 0.00 0.00 0.00 76 1005.9
20260506005402 84 149 14.0 17.0 0.00 0.00 0.00 76 1005.8
20260506004857 84 175 6.0 15.0 0.00 0.00 0.00 76 1006.0
20260506004355 84 155 7.0 16.0 0.00 0.00 0.00 75 1005.8
20260506003851 85 155 8.0 16.0 0.00 0.00 0.00 75 1005.7
20260506003347 85 137 6.0 12.0 0.00 0.00 0.00 74 1005.5
20260506002844 85 142 13.0 19.0 0.00 0.00 0.00 73 1005.4
20260506002340 85 141 8.0 10.0 0.00 0.00 0.00 73 1005.6
20260506001835 85 158 8.0 20.0 0.00 0.00 0.00 73 1005.4
20260506001332 86 128 11.0 14.0 0.00 0.00 0.00 72 1005.2
20260506000829 86 155 7.0 16.0 0.00 0.00 0.00 72 1005.3
20260506000327 86 158 4.0 21.0 0.00 0.00 0.00 71 1005.3
20260505235819 87 149 12.0 15.0 0.00 0.00 0.00 70 1005.1
20260505235316 87 129 8.0 15.0 0.00 0.00 0.00 70 1005.2
20260505234813 87 152 9.0 16.0 0.00 0.00 0.00 69 1005.1
20260505234311 87 128 11.0 21.0 0.00 0.00 0.00 69 1005.2
20260505233807 88 145 16.0 17.0 0.00 0.00 0.00 67 1005.2
20260505233305 88 154 9.0 22.0 0.00 0.00 0.00 67 1005.1
20260505232802 88 182 9.0 13.0 0.00 0.00 0.00 67 1005.1
20260505232300 88 150 14.0 16.0 0.00 0.00 0.00 67 1005.0
20260505231756 89 146 9.0 13.0 0.00 0.00 0.00 66 1005.1
20260505231255 89 144 9.0 15.0 0.00 0.00 0.00 66 1005.1
20260505230753 89 170 5.0 16.0 0.00 0.00 0.00 66 1005.1
20260505230249 89 140 9.0 21.0 0.00 0.00 0.00 65 1005.1
20260505225746 89 149 8.0 14.0 0.00 0.00 0.00 65 1005.2
20260505225243 89 133 15.0 20.0 0.00 0.00 0.00 65 1005.1
20260505224738 90 125 16.0 20.0 0.00 0.00 0.00 64 1005.2
20260505224236 90 162 9.0 11.0 0.00 0.00 0.00 64 1005.0
20260505223733 90 140 4.0 14.0 0.00 0.00 0.00 64 1005.1
20260505223229 90 151 11.0 16.0 0.00 0.00 0.00 64 1005.3
20260505222725 90 133 10.0 15.0 0.00 0.00 0.00 64 1005.4
20260505222221 90 157 9.0 18.0 0.00 0.00 0.00 63 1005.2
20260505221719 91 165 8.0 12.0 0.00 0.00 0.00 63 1005.3
20260505221215 91 173 10.0 16.0 0.00 0.00 0.00 63 1005.2
20260505220712 90 153 11.0 21.0 0.00 0.00 0.00 64 1005.3
20260505220210 90 137 9.0 20.0 0.00 0.00 0.00 63 1005.5
20260505215708 90 129 12.0 17.0 0.00 0.00 0.00 64 1005.2
20260505215205 90 134 10.0 17.0 0.00 0.00 0.00 63 1005.5
20260505214703 90 148 11.0 16.0 0.00 0.00 0.00 64 1005.5
20260505214201 90 136 12.0 17.0 0.00 0.00 0.00 63 1005.5
20260505213658 91 151 13.0 17.0 0.00 0.00 0.00 63 1005.6
20260505213155 90 147 9.0 16.0 0.00 0.00 0.00 64 1005.8
20260505212650 91 163 10.0 20.0 0.00 0.00 0.00 64 1005.8
20260505212148 91 147 5.0 17.0 0.00 0.00 0.00 63 1005.7
20260505211644 90 137 14.0 20.0 0.00 0.00 0.00 64 1005.8
20260505211142 90 131 11.0 18.0 0.00 0.00 0.00 65 1006.0
20260505210639 90 129 9.0 16.0 0.00 0.00 0.00 64 1006.0
20260505210135 90 148 7.0 13.0 0.00 0.00 0.00 64 1006.1
20260505205633 90 129 5.0 17.0 0.00 0.00 0.00 64 1006.0
20260505205131 91 133 14.0 17.0 0.00 0.00 0.00 64 1006.0
20260505204627 91 154 10.0 17.0 0.00 0.00 0.00 63 1006.0
20260505204125 91 136 10.0 13.0 0.00 0.00 0.00 63 1005.9
20260505203621 91 128 11.0 15.0 0.00 0.00 0.00 62 1006.1
20260505203118 91 195 7.0 12.0 0.00 0.00 0.00 63 1005.9
20260505202609 90 165 12.0 19.0 0.00 0.00 0.00 63 1006.4
20260505202105 91 148 9.0 11.0 0.00 0.00 0.00 63 1006.3
20260505201602 91 127 14.0 17.0 0.00 0.00 0.00 63 1006.3
20260505201100 91 143 9.0 15.0 0.00 0.00 0.00 62 1006.3
20260505200557 92 149 6.0 16.0 0.00 0.00 0.00 62 1006.4
20260505200054 91 137 8.0 13.0 0.00 0.00 0.00 62 1006.6
20260505195550 92 153 11.0 12.0 0.00 0.00 0.00 61 1006.5
20260505195048 91 142 12.0 12.0 0.00 0.00 0.00 64 1006.7
20260505194545 91 147 13.0 21.0 0.00 0.00 0.00 62 1006.5
20260505194040 92 168 9.0 12.0 0.00 0.00 0.00 62 1006.7
20260505193537 91 156 9.0 17.0 0.00 0.00 0.00 63 1006.8
20260505193035 91 167 9.0 12.0 0.00 0.00 0.00 62 1006.8
20260505192533 90 146 8.0 17.0 0.00 0.00 0.00 63 1006.9
20260505192030 91 124 9.0 12.0 0.00 0.00 0.00 63 1006.9
20260505191528 91 155 6.0 13.0 0.00 0.00 0.00 63 1007.1
20260505191026 91 160 5.0 9.0 0.00 0.00 0.00 62 1007.3
20260505190526 90 169 6.0 13.0 0.00 0.00 0.00 63 1007.2
20260505190022 90 163 5.0 13.0 0.00 0.00 0.00 64 1007.3
20260505185514 90 159 10.0 11.0 0.00 0.00 0.00 64 1007.6
20260505185010 90 138 9.0 10.0 0.00 0.00 0.00 64 1007.5
20260505184507 91 171 7.0 10.0 0.00 0.00 0.00 62 1007.4
20260505184003 91 140 6.0 11.0 0.00 0.00 0.00 62 1007.5
20260505183500 90 143 6.0 12.0 0.00 0.00 0.00 63 1007.6
20260505182956 89 158 6.0 11.0 0.00 0.00 0.00 64 1007.6
20260505182453 90 142 9.0 14.0 0.00 0.00 0.00 63 1007.8
20260505181949 90 154 8.0 13.0 0.00 0.00 0.00 63 1007.9
20260505181442 89 165 5.0 12.0 0.00 0.00 0.00 63 1007.9
20260505180939 90 183 10.0 12.0 0.00 0.00 0.00 63 1008.2
20260505180435 89 161 7.0 11.0 0.00 0.00 0.00 64 1008.2
20260505175932 88 176 6.0 11.0 0.00 0.00 0.00 64 1008.4
20260505175428 88 157 10.0 18.0 0.00 0.00 0.00 64 1008.2
20260505174924 90 175 9.0 15.0 0.00 0.00 0.00 62 1008.2
20260505174422 89 146 13.0 15.0 0.00 0.00 0.00 63 1008.4
20260505173918 89 172 6.0 17.0 0.00 0.00 0.00 63 1008.4
20260505173414 89 153 7.0 16.0 0.00 0.00 0.00 63 1008.5
20260505172912 89 167 8.0 15.0 0.00 0.00 0.00 63 1008.6
20260505172409 88 136 10.0 15.0 0.00 0.00 0.00 64 1008.4
20260505171908 88 148 6.0 13.0 0.00 0.00 0.00 65 1008.6
20260505171405 87 178 8.0 14.0 0.00 0.00 0.00 65 1008.4
20260505170856 87 173 8.0 13.0 0.00 0.00 0.00 65 1008.6
20260505170354 87 170 5.0 11.0 0.00 0.00 0.00 66 1008.5
20260505165849 88 171 8.0 16.0 0.00 0.00 0.00 63 1008.7
20260505165345 88 141 9.0 18.0 0.00 0.00 0.00 66 1008.7
20260505164840 87 162 9.0 14.0 0.00 0.00 0.00 66 1008.9
20260505164337 87 150 10.0 16.0 0.00 0.00 0.00 67 1009.0
20260505163836 87 170 8.0 12.0 0.00 0.00 0.00 66 1009.1
20260505163334 86 144 10.0 17.0 0.00 0.00 0.00 67 1008.9
20260505162832 86 141 6.0 12.0 0.00 0.00 0.00 69 1009.1
20260505162328 85 163 7.0 11.0 0.00 0.00 0.00 70 1009.2
20260505161825 85 179 6.0 18.0 0.00 0.00 0.00 70 1009.4
20260505161322 85 162 6.0 13.0 0.00 0.00 0.00 70 1009.3
20260505160820 86 163 10.0 13.0 0.00 0.00 0.00 69 1009.4
20260505160318 85 160 9.0 18.0 0.00 0.00 0.00 70 1009.2
20260505153256 84 177 6.0 10.0 0.00 0.00 0.00 74 1009.3
20260505152753 83 175 7.0 11.0 0.00 0.00 0.00 75 1009.3
20260505152249 82 161 8.0 14.0 0.00 0.00 0.00 75 1009.4
20260505151744 82 153 13.0 20.0 0.00 0.00 0.00 76 1009.4
20260505151242 82 179 9.0 18.0 0.00 0.00 0.00 76 1009.3
20260505150738 82 150 8.0 12.0 0.00 0.00 0.00 77 1009.5
20260505150235 82 148 7.0 13.0 0.00 0.00 0.00 77 1009.5
20260505140200 79 184 10.0 12.0 0.00 0.00 0.00 84 1009.3
20260505130124 77 193 3.0 9.0 0.00 0.00 0.00 87 1009.4
20260505124613 77 184 6.0 8.0 0.00 0.00 0.00 88 1009.2
20260505124110 77 165 6.0 7.0 0.00 0.00 0.00 88 1009.2
20260505123606 77 166 4.0 13.0 0.00 0.00 0.00 88 1009.1
20260505123103 77 175 6.0 9.0 0.00 0.00 0.00 88 1009.2
20260505122559 77 164 6.0 11.0 0.00 0.00 0.00 88 1009.2
20260505122056 77 152 7.0 8.0 0.00 0.00 0.00 88 1009.2
20260505121547 77 167 7.0 12.0 0.00 0.00 0.00 88 1009.2
20260505121044 77 175 6.0 10.0 0.00 0.00 0.00 88 1009.2
20260505120540 77 160 6.0 10.0 0.00 0.00 0.00 88 1009.2
20260505120036 77 182 9.0 13.0 0.00 0.00 0.00 88 1009.0
20260505115531 77 171 4.0 11.0 0.00 0.00 0.00 88 1008.9
20260505115028 77 144 3.0 7.0 0.00 0.00 0.00 87 1009.1
20260505114525 77 165 7.0 13.0 0.00 0.00 0.00 87 1009.0
20260505114021 77 140 8.0 12.0 0.00 0.00 0.00 87 1008.8
20260505113517 77 152 6.0 11.0 0.00 0.00 0.00 87 1008.9
20260505113014 77 183 7.0 11.0 0.00 0.00 0.00 87 1009.0
20260505112511 77 167 4.0 11.0 0.00 0.00 0.00 87 1009.0
20260505112009 77 171 7.0 10.0 0.00 0.00 0.00 87 1009.2
20260505111502 77 183 5.0 13.0 0.00 0.00 0.00 87 1009.3
20260505110959 77 170 6.0 10.0 0.00 0.00 0.00 88 1009.0
20260505110455 77 143 7.0 9.0 0.00 0.00 0.00 88 1009.2
20260505101926 76 148 6.0 9.0 0.00 0.00 0.00 89 1009.3
20260505101421 76 180 3.0 9.0 0.00 0.00 0.00 89 1009.2
20260505100917 76 169 7.0 10.0 0.00 0.00 0.00 89 1009.2
20260505100414 76 172 5.0 9.0 0.00 0.00 0.00 88 1009.0
20260505095910 77 171 5.0 12.0 0.00 0.00 0.00 88 1009.1
20260505095407 76 184 6.0 9.0 0.00 0.00 0.00 88 1009.4
20260505094903 76 159 6.0 11.0 0.00 0.00 0.00 88 1009.1
20260505094400 76 189 4.0 12.0 0.00 0.00 0.00 88 1009.2
20260505093856 76 158 5.0 11.0 0.00 0.00 0.00 88 1009.2
20260505093353 76 167 7.0 11.0 0.00 0.00 0.00 88 1009.0
20260505092850 76 179 9.0 12.0 0.00 0.00 0.00 88 1009.1
20260505092348 77 163 5.0 7.0 0.00 0.00 0.00 88 1009.1
20260505091845 76 170 4.0 13.0 0.00 0.00 0.00 88 1009.1
20260505091343 76 178 6.0 13.0 0.00 0.00 0.00 88 1009.2
20260505090841 76 181 7.0 11.0 0.00 0.00 0.00 88 1009.2
20260505090339 76 176 5.0 7.0 0.00 0.00 0.00 88 1009.1
20260505085836 76 150 3.0 9.0 0.00 0.00 0.00 88 1009.2
20260505085334 76 178 7.0 14.0 0.00 0.00 0.00 87 1009.2
20260505084831 76 178 4.0 11.0 0.00 0.00 0.00 87 1009.2
20260505084330 76 168 8.0 11.0 0.00 0.00 0.00 87 1009.4
20260505083826 76 190 9.0 11.0 0.00 0.00 0.00 87 1009.4
20260505083324 76 205 2.0 8.0 0.00 0.00 0.00 87 1009.7
20260505082820 76 163 7.0 9.0 0.00 0.00 0.00 87 1009.6
20260505082311 76 177 4.0 9.0 0.00 0.00 0.00 87 1009.8
20260505081807 76 138 8.0 10.0 0.00 0.00 0.00 87 1009.8
20260505081304 76 144 6.0 8.0 0.00 0.00 0.00 87 1009.9